"Pseudo-MPEC" for P110H5i

Created 2020 May 27 22:07:10 UT using Find_Orb

Click here for an explanation of pseudo-MPECs

 
 Astrometry: 
     P110H5i  C2020 05 201Dx$VhFAstrometryn#6redacted;F^CW/j9\`L\LurZ8click:@F51
     P110H5i  C2020 05 207Ki*t1PC4@C,%@dh1#JK*,w%$heren9p.Y.4xQLcHowforh9*GYHF51
     P110H5i  C2020 05 205DK`o/lmexplanation4K;(A#a)k9[cfD1[uNY!.'7R-wiI+nd36F51
     P110H5i ^C2020 05 21.31865913 49 13.879-25 22 35.34   ~5M7q 21.64GVNEOCP568
     P110H5i ^C2020 05 21.31960613 49 14.190-25 22 35.16   ~5M7q 21.62GVNEOCP568

Station data:
(568) Mauna Kea  (N19.826116 W155.472200)  US/Hawaii.
(F51) Pan-STARRS 1, Haleakala  (N20.707235 W156.255910)  US/Hawaii.
   Observers N. Primak, A. Schultz, S. Watters, J. Thiel, T. Goggia. Measurer
   PS1 Science Consortium. 1.8-m Ritchey-Chrétien + CCD.

Orbital elements:  P110H5i
   Perihelion 2020 Mar 16.207958 +/- 30 TT =  4:59:27 (JD 2458924.707958)
Epoch 2020 May 21.0 TT = JDT 2458990.5   Earth MOID: 0.0128   Ma: 0.0152
M  43.10851643 +/- 19               (J2000 ecliptic)          AutoNEOCP
n   0.65522386 +/- 0.355            Peri.  187.44347 +/- 70
a   1.31283327 +/- 0.474            Node   336.47422 +/- 45
e   0.3021332 +/- 0.238             Incl.    1.21976 +/- 1.9
P   1.50/549.42d           H 25.6   G  0.15   U 12.0  SR
q 0.91618266 +/- 0.143    Q 1.70948389 +/- 39.2
From 5 observations 2020 May 20-21 (24.7 hr); mean residual 0".14
Residuals in arcseconds: 
200520 F51  .10+  .28-    200520 F51  .03-  .19+    200521 568  .18+  .02+    
200520 F51  .07-  .09+    200521 568  .18-  .02-    

Ephemerides (geocentric):
Date (UTC) HH   RA              Dec         delta   r     elong  mag " sig PA
---- -- -- --  -------------   -----------  ------ ------ -----  --- ---- ---
2020 05 27 22  14 19 02.288   -24 54 20.04  .13361 1.1332 152.1 22.7 4912 174
2020 05 27 23  14 19 11.407   -24 54 08.67  .13382 1.1334 152.1 22.7 4963 174
2020 05 28 00  14 19 20.506   -24 53 57.31  .13403 1.1336 152.1 22.7 5014 174
2020 05 28 01  14 19 29.583   -24 53 45.95  .13424 1.1338 152.1 22.7 5065 174
2020 05 28 02  14 19 38.639   -24 53 34.59  .13445 1.1340 152.1 22.7 5116 174
2020 05 28 03  14 19 47.674   -24 53 23.23  .13466 1.1342 152.1 22.7 5168 174
2020 05 28 04  14 19 56.689   -24 53 11.88  .13487 1.1344 152.1 22.7 5219 174
2020 05 28 05  14 20 05.682   -24 53 00.52  .13508 1.1346 152.1 22.7 5271 174
2020 05 28 06  14 20 14.656   -24 52 49.17  .13529 1.1348 152.1 22.7 5323 174
2020 05 28 07  14 20 23.608   -24 52 37.82  .13550 1.1350 152.1 22.7 5375 174
2020 05 28 08  14 20 32.540   -24 52 26.48  .13571 1.1352 152.1 22.7 5428 174
2020 05 28 09  14 20 41.452   -24 52 15.13  .13593 1.1354 152.1 22.7 5480 174
2020 05 28 10  14 20 50.343   -24 52 03.79  .13614 1.1356 152.1 22.7 5533 174
2020 05 28 11  14 20 59.214   -24 51 52.45  .13635 1.1358 152.1 22.7 5586 174
2020 05 28 12  14 21 08.065   -24 51 41.12  .13656 1.1360 152.1 22.7 5639 174
2020 05 28 13  14 21 16.896   -24 51 29.79  .13677 1.1361 152.0 22.7 5692 174
2020 05 28 14  14 21 25.708   -24 51 18.46  .13698 1.1363 152.0 22.8 5745 174
2020 05 28 15  14 21 34.499   -24 51 07.14  .13720 1.1365 152.0 22.8 5799 174
2020 05 28 16  14 21 43.270   -24 50 55.82  .13741 1.1367 152.0 22.8 5852 174
2020 05 28 17  14 21 52.022   -24 50 44.50  .13762 1.1369 152.0 22.8 5906 174
2020 05 28 18  14 22 00.754   -24 50 33.19  .13783 1.1371 152.0 22.8 5960 174
2020 05 28 19  14 22 09.467   -24 50 21.88  .13804 1.1373 152.0 22.8 6014 174
2020 05 28 20  14 22 18.160   -24 50 10.58  .13826 1.1375 152.0 22.8 6069 173
2020 05 28 21  14 22 26.834   -24 49 59.28  .13847 1.1377 152.0 22.8 6123 173
2020 05 28 22  14 22 35.489   -24 49 47.98  .13868 1.1379 152.0 22.8 6178 173
2020 05 28 23  14 22 44.124   -24 49 36.70  .13890 1.1381 152.0 22.8 6233 173
2020 05 29 00  14 22 52.741   -24 49 25.41  .13911 1.1383 152.0 22.8 6288 173
2020 05 29 01  14 23 01.338   -24 49 14.13  .13932 1.1385 152.0 22.8 6343 173
2020 05 29 02  14 23 09.916   -24 49 02.86  .13954 1.1387 152.0 22.8 6398 173
2020 05 29 03  14 23 18.476   -24 48 51.59  .13975 1.1389 152.0 22.8 6454 173
2020 05 29 04  14 23 27.017   -24 48 40.33  .13996 1.1391 152.0 22.8 6510 173
2020 05 29 05  14 23 35.539   -24 48 29.07  .14018 1.1393 152.0 22.8 6565 173
2020 05 29 06  14 23 44.042   -24 48 17.82  .14039 1.1395 152.0 22.8 6621 173
2020 05 29 07  14 23 52.527   -24 48 06.57  .14061 1.1397 152.0 22.8 6678 173
2020 05 29 08  14 24 00.994   -24 47 55.33  .14082 1.1399 152.0 22.8 6734 173
2020 05 29 09  14 24 09.442   -24 47 44.10  .14103 1.1401 152.0 22.8 6790 173
2020 05 29 10  14 24 17.872   -24 47 32.87  .14125 1.1403 152.0 22.8 6847 173
2020 05 29 11  14 24 26.283   -24 47 21.65  .14146 1.1405 151.9 22.8 6904 173
2020 05 29 12  14 24 34.677   -24 47 10.43  .14168 1.1407 151.9 22.8 6961 173
2020 05 29 13  14 24 43.052   -24 46 59.22  .14189 1.1408 151.9 22.8 7018 173
2020 05 29 14  14 24 51.409   -24 46 48.02  .14211 1.1410 151.9 22.8 7075 173
2020 05 29 15  14 24 59.749   -24 46 36.83  .14232 1.1412 151.9 22.8 7132 173
2020 05 29 16  14 25 08.071   -24 46 25.64  .14254 1.1414 151.9 22.8 7190 173
2020 05 29 17  14 25 16.374   -24 46 14.46  .14275 1.1416 151.9 22.9 7247 173
2020 05 29 18  14 25 24.661   -24 46 03.29  .14297 1.1418 151.9 22.9 7305 173
2020 05 29 19  14 25 32.929   -24 45 52.12  .14318 1.1420 151.9 22.9 7363 173
2020 05 29 20  14 25 41.180   -24 45 40.96  .14340 1.1422 151.9 22.9 7421 173
2020 05 29 21  14 25 49.414   -24 45 29.81  .14362 1.1424 151.9 22.9 7479 173